When you browse on this site, cookies collect data to enhance your experience and personalize the content and advertising you see.
Visit our Privacy Policy to learn more. By continuing to use the site, you agree to this use of cookies and data.

Hourly Weather Cobán

Today, 3 July, Friday

Time Temperature Precipitation Wind Pressure Humidity
00:00 +16°C° 0.3 mm 0 mps 653 mmHg 97%
01:00 +16°C° 0.1 mm 0 mps 653 mmHg 96%
02:00 +16°C° 0.1 mm 0 mps 653 mmHg 96%
03:00 +16°C° 0.1 mm 0 mps 652 mmHg 96%
04:00 +16°C° 0 mm 0 mps 653 mmHg 96%
05:00 +16°C° 0 mm 0 mps 653 mmHg 96%
06:00 +16°C° 0 mm 0 mps 653 mmHg 95%
07:00 +18°C° 0 mm 0 mps 654 mmHg 87%
08:00 +20°C° 0 mm 0 mps 655 mmHg 78%
09:00 +24°C° 0 mm 1 mps 656 mmHg 69%
10:00 +22°C° 0.8 mm 0 mps 655 mmHg 73%
11:00 +22°C° 0.8 mm 0 mps 655 mmHg 78%
12:00 +22°C° 0.8 mm 0 mps 655 mmHg 82%
13:00 +21°C° 1.2 mm 0 mps 654 mmHg 86%
14:00 +20°C° 1.2 mm 0 mps 653 mmHg 89%
15:00 +20°C° 1.2 mm 0 mps 653 mmHg 93%
16:00 +19°C° 0.9 mm 0 mps 653 mmHg 94%
17:00 +19°C° 0.9 mm 0 mps 653 mmHg 96%
18:00 +19°C° 0.9 mm 0 mps 653 mmHg 97%
19:00 +18°C° 0.3 mm 0 mps 653 mmHg 97%
20:00 +17°C° 0.3 mm 0 mps 654 mmHg 98%
21:00 +17°C° 0.3 mm 0 mps 654 mmHg 98%
22:00 +17°C° 0 mm 0 mps 654 mmHg 98%
23:00 +16°C° 0 mm 0 mps 654 mmHg 98%

Tomorrow, 4 July, Saturday

Time Temperature Precipitation Wind Pressure Humidity
00:00 +16°C° 0 mm 0 mps 654 mmHg 98%
01:00 +16°C° 0 mm 0 mps 654 mmHg 97%
02:00 +16°C° 0 mm 0 mps 653 mmHg 97%
03:00 +16°C° 0 mm 0 mps 653 mmHg 97%
04:00 +16°C° 0 mm 0 mps 653 mmHg 97%
05:00 +16°C° 0 mm 0 mps 653 mmHg 97%
06:00 +16°C° 0 mm 0 mps 653 mmHg 97%
07:00 +18°C° 0 mm 0 mps 654 mmHg 89%
08:00 +20°C° 0 mm 0 mps 654 mmHg 81%
09:00 +24°C° 0 mm 1 mps 655 mmHg 73%
10:00 +25°C° 0.1 mm 1 mps 655 mmHg 71%
11:00 +26°C° 0.1 mm 1 mps 655 mmHg 69%
12:00 +27°C° 0.1 mm 1 mps 655 mmHg 66%
13:00 +26°C° 1.4 mm 1 mps 655 mmHg 73%
14:00 +25°C° 1.4 mm 1 mps 654 mmHg 80%
15:00 +24°C° 1.4 mm 1 mps 653 mmHg 87%
16:00 +23°C° 1.3 mm 1 mps 653 mmHg 90%
17:00 +23°C° 1.3 mm 1 mps 653 mmHg 93%
18:00 +22°C° 1.3 mm 1 mps 653 mmHg 96%
19:00 +21°C° 0.4 mm 1 mps 653 mmHg 96%
20:00 +18°C° 0.4 mm 0 mps 654 mmHg 97%
21:00 +17°C° 0.4 mm 0 mps 654 mmHg 98%
22:00 +17°C° 0 mm 0 mps 654 mmHg 98%
23:00 +16°C° 0 mm 0 mps 654 mmHg 97%

Day after tomorrow, 5 July, Sunday

Time Temperature Precipitation Wind Pressure Humidity
00:00 +16°C° 0 mm 0 mps 653 mmHg 97%
01:00 +16°C° 0 mm 0 mps 653 mmHg 97%
02:00 +16°C° 0 mm 0 mps 653 mmHg 97%
03:00 +16°C° 0 mm 0 mps 653 mmHg 97%
04:00 +16°C° 0 mm 0 mps 653 mmHg 96%
05:00 +15°C° 0 mm 0 mps 653 mmHg 96%
06:00 +16°C° 0 mm 1 mps 653 mmHg 96%
07:00 +18°C° 0 mm 0 mps 653 mmHg 85%
08:00 +21°C° 0 mm 0 mps 654 mmHg 74%
09:00 +23°C° 0 mm 0 mps 655 mmHg 63%
10:00 +24°C° 0 mm 0 mps 655 mmHg 60%
11:00 +27°C° 0 mm 1 mps 655 mmHg 57%
12:00 +28°C° 0 mm 1 mps 655 mmHg 55%
13:00 +28°C° 0.8 mm 1 mps 654 mmHg 62%
14:00 +27°C° 0.8 mm 1 mps 654 mmHg 70%
15:00 +26°C° 0.8 mm 1 mps 653 mmHg 77%
16:00 +25°C° 0.5 mm 1 mps 653 mmHg 82%
17:00 +24°C° 0.5 mm 1 mps 653 mmHg 87%
18:00 +21°C° 0.5 mm 0 mps 652 mmHg 91%
19:00 +20°C° 0.1 mm 0 mps 653 mmHg 93%
20:00 +21°C° 0.1 mm 1 mps 653 mmHg 95%
21:00 +20°C° 0.1 mm 1 mps 653 mmHg 97%
22:00 +19°C° 0 mm 1 mps 653 mmHg 97%
23:00 +19°C° 0 mm 1 mps 653 mmHg 97%

6 July, Monday

Time Temperature Precipitation Wind Pressure Humidity
00:00 +19°C° 0 mm 1 mps 653 mmHg 97%
01:00 +18°C° 0 mm 1 mps 653 mmHg 97%
02:00 +18°C° 0 mm 1 mps 652 mmHg 97%
03:00 +18°C° 0 mm 1 mps 652 mmHg 97%
04:00 +18°C° 0 mm 1 mps 652 mmHg 96%
05:00 +18°C° 0 mm 1 mps 653 mmHg 96%
06:00 +18°C° 0 mm 1 mps 653 mmHg 96%
07:00 +20°C° 0 mm 1 mps 654 mmHg 86%
08:00 +21°C° 0 mm 0 mps 655 mmHg 76%
09:00 +24°C° 0 mm 0 mps 656 mmHg 66%
10:00 +24°C° 0.2 mm 0 mps 656 mmHg 65%
11:00 +27°C° 0.2 mm 1 mps 656 mmHg 63%
12:00 +28°C° 0.2 mm 1 mps 655 mmHg 61%
13:00 +27°C° 0.9 mm 1 mps 655 mmHg 66%
14:00 +27°C° 0.9 mm 1 mps 654 mmHg 71%
15:00 +26°C° 0.9 mm 1 mps 654 mmHg 76%
16:00 +25°C° 0.4 mm 1 mps 654 mmHg 81%
17:00 +22°C° 0.4 mm 0 mps 653 mmHg 86%
18:00 +21°C° 0.4 mm 0 mps 653 mmHg 90%
19:00 +19°C° 0 mm 0 mps 653 mmHg 91%
20:00 +20°C° 0 mm 1 mps 654 mmHg 93%
21:00 +19°C° 0 mm 1 mps 654 mmHg 94%
22:00 +19°C° 0 mm 1 mps 654 mmHg 94%
23:00 +19°C° 0 mm 1 mps 654 mmHg 94%

7 July, Tuesday

Time Temperature Precipitation Wind Pressure Humidity
00:00 +18°C° 0 mm 1 mps 654 mmHg 95%
01:00 +18°C° 0 mm 1 mps 654 mmHg 95%
02:00 +18°C° 0 mm 1 mps 653 mmHg 94%
03:00 +18°C° 0 mm 1 mps 653 mmHg 94%
04:00 +18°C° 0 mm 1 mps 653 mmHg 94%
05:00 +15°C° 0 mm 0 mps 653 mmHg 94%
06:00 +15°C° 0 mm 0 mps 653 mmHg 94%
07:00 +18°C° 0 mm 0 mps 654 mmHg 84%
08:00 +20°C° 0 mm 0 mps 655 mmHg 75%
09:00 +23°C° 0 mm 0 mps 656 mmHg 65%
10:00 +26°C° 0 mm 1 mps 656 mmHg 61%
11:00 +27°C° 0 mm 1 mps 656 mmHg 58%
12:00 +28°C° 0 mm 2 mps 656 mmHg 55%
13:00 +27°C° 0.6 mm 1 mps 656 mmHg 60%
14:00 +27°C° 0.6 mm 1 mps 655 mmHg 66%
15:00 +26°C° 0.6 mm 1 mps 654 mmHg 71%
16:00 +25°C° 0.4 mm 1 mps 654 mmHg 78%
17:00 +23°C° 0.4 mm 1 mps 654 mmHg 85%
18:00 +20°C° 0.4 mm 0 mps 653 mmHg 92%
19:00 +19°C° 0.1 mm 0 mps 654 mmHg 94%
20:00 +20°C° 0.1 mm 1 mps 654 mmHg 96%
21:00 +19°C° 0.1 mm 1 mps 654 mmHg 98%
22:00 +17°C° 0 mm 0 mps 654 mmHg 98%
23:00 +17°C° 0 mm 0 mps 654 mmHg 98%

8 July, Wednesday

Time Temperature Precipitation Wind Pressure Humidity
00:00 +16°C° 0 mm 0 mps 654 mmHg 97%
01:00 +16°C° 0 mm 0 mps 654 mmHg 97%
02:00 +16°C° 0 mm 0 mps 654 mmHg 97%
03:00 +16°C° 0 mm 0 mps 653 mmHg 97%
04:00 +15°C° 0 mm 0 mps 653 mmHg 97%
05:00 +15°C° 0 mm 0 mps 653 mmHg 96%
06:00 +15°C° 0 mm 0 mps 653 mmHg 96%
07:00 +18°C° 0 mm 0 mps 654 mmHg 86%
08:00 +20°C° 0 mm 0 mps 655 mmHg 75%
09:00 +23°C° 0 mm 0 mps 656 mmHg 64%
10:00 +26°C° 0 mm 1 mps 656 mmHg 59%
11:00 +27°C° 0 mm 1 mps 656 mmHg 53%
12:00 +29°C° 0 mm 2 mps 656 mmHg 48%
13:00 +28°C° 0.2 mm 2 mps 656 mmHg 52%
14:00 +28°C° 0.2 mm 2 mps 655 mmHg 56%
15:00 +27°C° 0.2 mm 2 mps 654 mmHg 60%
16:00 +26°C° 0.2 mm 2 mps 654 mmHg 66%
17:00 +24°C° 0.2 mm 1 mps 654 mmHg 72%
18:00 +23°C° 0.2 mm 1 mps 654 mmHg 78%
19:00 +21°C° 0 mm 1 mps 654 mmHg 81%
20:00 +20°C° 0 mm 1 mps 654 mmHg 84%
21:00 +18°C° 0 mm 1 mps 654 mmHg 88%
22:00 +18°C° 0 mm 1 mps 654 mmHg 87%
23:00 +18°C° 0 mm 1 mps 654 mmHg 87%
Show more